Stations météo

réclame
Mon MeteoGroup
Abbeville, France (7005): Température de l'air & dewpoint: 17.09.2017 21:00:00 - 23.09.2017 21:00:00 (CEST)Abbeville, France (7005): Température de l'air 5cm: 17.09.2017 21:00:00 - 23.09.2017 21:00:00 (CEST)Abbeville, France (7005): Température de l'air -20cm & Température de l'air -100cm: 17.09.2017 21:00:00 - 23.09.2017 21:00:00 (CEST)Abbeville, France (7005): Vitesse du vent & gusts: 17.09.2017 21:00:00 - 23.09.2017 21:00:00 (CEST)Abbeville, France (7005): Direction du vent: 17.09.2017 21:00:00 - 23.09.2017 21:00:00 (CEST)Abbeville, France (7005): reduced air pressure: 17.09.2017 21:00:00 - 23.09.2017 21:00:00 (CEST)Abbeville, France (7005): visibility: 17.09.2017 21:00:00 - 23.09.2017 21:00:00 (CEST)Abbeville, France (7005): Ensoleillement: 17.09.2017 21:00:00 - 23.09.2017 21:00:00 (CEST)Abbeville, France (7005): Quantités de précipitations: 17.09.2017 21:00:00 - 23.09.2017 21:00:00 (CEST)
Date & Time tt [°C] td [°C] tt 5cm [°C] tt -20cm [°C] tt -100cm [°C] ff [km/h] ff [knt] fx [km/h] fx [knt] dd ppp [hPa] vv [km] sd [min] rr [mm]
23.09.2017 21:00:00 14,0 10,0 12,6 15,7 15,5 8 4 12 7 E 1021,8 20 0 0,0
23.09.2017 20:00:00 15,3 10,7 13,9 15,7 15,5 10 5 16 9 E 1021,2 20 12 0,0
23.09.2017 19:00:00 17,4 10,5 18,3 15,6 15,5 11 6 18 10 E 1021,3 20 51 0,0
23.09.2017 18:00:00 18,5 8,7 19,8 15,4 15,5 6 3 13 7 ESE 1021,2 20 42 0,0
23.09.2017 17:00:00 19,0 9,2 23,4 15,2 15,5 6 3 16 9 E 1021,4 20 57 0,0
23.09.2017 16:00:00 18,6 9,4 22,9 14,9 15,5 9 5 23 12 ESE 1022,1 20 60 0,0
23.09.2017 15:00:00 18,3 6,8 23,8 14,6 15,5 6 4 18 10 ESE 1022,8 20 60 0,0
23.09.2017 14:00:00 17,5 8,6 21,4 14,4 15,5 6 3 14 7 ESE 1023,1 20 57 0,0
23.09.2017 13:00:00 15,9 10,2 19,6 14,3 15,5 8 5 14 8 ESE 1023,4 12 37 0,0
23.09.2017 12:00:00 15,1 10,9 19,0 14,2 15,5 4 2 11 6 SSE 1023,9 10 36 0,0
23.09.2017 11:00:00 14,4 10,8 15,7 14,2 15,5 5 3 10 5 SSE 1024,0 10 60 0,0
23.09.2017 10:00:00 11,0 10,1 7,9 14,3 15,5 5 3 9 5 SE 1024,0 8 60 0,0
23.09.2017 09:00:00 8,1 7,7 6,2 14,5 15,5 5 3 10 5 SE 1024,1 4,0 34 0,0
23.09.2017 08:00:00 7,3 6,9 6,0 14,6 15,5 5 3 13 7 SE 1024,0 4,0 0 0,0
23.09.2017 07:00:00 7,6 7,2 6,7 14,7 15,5 9 5 13 7 ESE 1023,9 6 0 0,2
23.09.2017 06:00:00 7,9 7,3 6,8 14,9 15,5 7 4 12 6 ESE 1023,9 6 0 0,0
23.09.2017 05:00:00 7,8 7,2 6,7 15,0 15,5 6 4 10 5 SE 1024,1 5 0 0,0
23.09.2017 04:00:00 7,6 6,8 6,2 15,2 15,5 7 4 10 5 ESE 1024,4 5 0 0,0
23.09.2017 03:00:00 7,8 7,0 6,8 15,3 15,5 8 4 11 6 ESE 1024,2 5 0 0,0
23.09.2017 02:00:00 8,2 7,3 7,0 15,5 15,5 8 5 10 6 ESE 1024,6 7 0 0,0
23.09.2017 01:00:00 9,5 8,4 6,7 15,7 15,5 6 3 8 5 SE 1024,4 9 0 0,0
23.09.2017 00:00:00 10,1 8,7 6,5 15,9 15,6 6 3 8 4 S 1024,3 16 0 0,0
22.09.2017 23:00:00 10,7 9,0 6,7 16,0 15,5 4 2 6 3 S 1024,3 11 0 0,2
22.09.2017 22:00:00 11,4 9,3 6,5 16,2 15,6 4 2 5 3 SSE 1024,2 19 0 0,0
22.09.2017 21:00:00 11,3 8,9 7,0 16,2 15,5 3 2 7 4 W 1023,9 20 0 0,0
22.09.2017 20:00:00 12,8 9,2 10,0 16,2 15,5 5 3 16 9 WNW 1023,5 20 16 0,0
22.09.2017 19:00:00 15,0 9,8 15,3 16,2 15,5 12 7 25 13 WNW 1023,1 20 44 0,0
22.09.2017 18:00:00 16,1 10,6 20,0 16,1 15,5 16 8 26 14 WNW 1022,8 20 60 0,0
22.09.2017 17:00:00 16,8 11,1 19,8 15,9 15,5 14 7 24 13 WNW 1022,5 40 57 0,0
22.09.2017 16:00:00 16,9 10,5 21,9 15,7 15,6 18 10 27 15 WNW 1022,4 40 60 0,0
22.09.2017 15:00:00 17,2 10,6 17,5 15,5 15,5 16 9 26 14 WNW 1022,4 40 42 0,0
22.09.2017 14:00:00 17,1 10,5 17,4 15,3 15,6 14 8 24 13 W 1022,2 30 49 0,0
22.09.2017 13:00:00 17,2 11,5 19,1 15,2 15,6 15 8 27 15 WNW 1022,1 30 53 0,0
22.09.2017 12:00:00 16,6 11,3 16,5 15,1 15,5 15 8 24 13 W 1021,9 30 44 0,0
22.09.2017 11:00:00 16,1 10,8 18,0 15,0 15,6 13 7 18 10 WNW 1021,7 30 54 0,0
22.09.2017 10:00:00 14,8 11,8 13,9 15,1 15,6 11 6 17 9 WNW 1021,2 20 31 0,0
22.09.2017 09:00:00 13,5 12,4 13,2 15,1 15,6 6 3 9 5 W 1021,0 20 0 0,0
22.09.2017 08:00:00 13,7 12,9 13,2 15,1 15,6 5 3 6 4 SW 1020,5 12 0 0,0
22.09.2017 07:00:00 13,7 13,1 13,2 15,1 15,6 4 2 9 5 WNW 1019,9 20 0 0,0
22.09.2017 06:00:00 13,9 12,9 13,2 15,1 15,6 0 0 3 1 N 1019,8 15 0 0,0
22.09.2017 05:00:00 13,9 12,9 12,8 15,1 15,6 3 2 6 3 WNW 1019,7 13 0 0,0
22.09.2017 04:00:00 14,1 13,0 13,5 15,1 15,6 4 2 11 6 W 1019,6 20 0 0,0
22.09.2017 03:00:00 14,1 12,7 13,5 15,2 15,6 5 3 9 5 W 1019,7 20 0 0,0
22.09.2017 02:00:00 14,2 12,8 13,3 15,2 15,6 3 2 6 3 SW 1019,5 20 0 0,0
22.09.2017 01:00:00 14,3 12,8 13,8 15,2 15,6 5 3 27 14 W 1019,3 20 0 0,0
22.09.2017 00:00:00 15,0 13,9 14,2 15,3 15,6 11 6 16 9 WNW 1019,0 20 0 0,0
21.09.2017 23:00:00 14,7 13,1 13,5 15,3 15,6 8 4 11 6 WNW 1018,8 20 0 0,0
21.09.2017 22:00:00 14,5 10,9 12,4 15,3 15,6 8 4 13 7 WSW 1018,8 20 0 0,0
21.09.2017 21:00:00 16,1 10,8 11,9 15,3 15,6 5 3 7 4 SE 1018,3 20 0 0,0
21.09.2017 20:00:00 16,6 10,4 12,5 15,2 15,6 3 1 7 4 S 1017,8 17 0 0,0
21.09.2017 19:00:00 19,0 10,5 19,1 15,1 15,6 5 3 21 11 SW 1017,5 20 52 0,0
21.09.2017 18:00:00 20,0 10,1 20,4 15,0 15,6 11 6 22 12 SSW 1017,0 20 50 0,0
21.09.2017 17:00:00 19,9 10,3 21,3 14,7 15,6 8 5 32 18 S 1016,9 40 53 0,0
21.09.2017 16:00:00 19,9 10,0 21,4 14,5 15,6 9 5 26 14 S 1017,0 40 30 0,0
21.09.2017 15:00:00 19,1 9,0 22,6 14,3 15,6 16 8 33 18 S 1017,4 40 60 0,0
21.09.2017 14:00:00 19,0 8,9 23,0 14,1 15,6 14 8 28 15 SSE 1017,9 35 60 0,0
21.09.2017 13:00:00 18,3 9,6 20,6 14,0 15,6 12 7 31 17 S 1018,1 30 48 0,0
21.09.2017 12:00:00 17,5 10,1 18,9 13,9 15,6 14 7 26 14 S 1018,2 25 60 0,0
21.09.2017 11:00:00 15,2 10,2 16,9 13,9 15,6 15 8 23 12 SSE 1018,6 25 60 0,0
21.09.2017 10:00:00 13,1 9,2 10,9 14,0 15,6 12 6 19 10 SSE 1018,8 20 60 0,0
21.09.2017 09:00:00 11,4 8,3 9,7 14,1 15,6 11 6 18 10 SE 1018,5 25 33 0,0
21.09.2017 08:00:00 10,2 7,8 9,1 14,2 15,6 13 7 18 10 SE 1018,6 25 0 0,0
21.09.2017 07:00:00 10,1 8,0 8,9 14,3 15,6 10 6 16 9 SE 1018,6 25 0 0,0
21.09.2017 06:00:00 10,1 8,0 9,1 14,3 15,6 10 5 16 9 SE 1018,6 25 0 0,0
21.09.2017 05:00:00 10,4 8,3 9,2 14,5 15,7 11 6 13 7 SE 1019,0 20 0 0,0
21.09.2017 04:00:00 10,6 8,5 9,4 14,6 15,7 9 5 13 7 SE 1019,2 20 0 0,0
21.09.2017 03:00:00 10,7 8,6 9,0 14,6 15,6 8 5 11 6 SSE 1019,4 20 0 0,0
21.09.2017 02:00:00 11,3 8,7 9,6 14,7 15,7 6 4 13 7 S 1019,6 20 0 0,0
21.09.2017 01:00:00 11,4 9,0 9,9 14,8 15,7 8 4 13 7 SSE 1019,5 20 0 0,0
21.09.2017 00:00:00 11,8 9,0 10,4 14,9 15,7 10 5 16 9 SSE 1019,5 20 0 0,0
20.09.2017 23:00:00 12,4 9,2 11,3 14,9 15,7 10 5 14 8 SSE 1019,5 20 0 0,0
20.09.2017 22:00:00 13,0 9,6 11,7 15,0 15,7 9 5 13 7 SSE 1019,7 20 0 0,0
20.09.2017 21:00:00 13,7 9,9 12,0 15,0 15,7 9 5 10 6 SSE 1019,9 20 0 0,0
20.09.2017 20:00:00 14,8 10,2 12,7 14,9 15,7 5 3 11 6 S 1019,7 9 14 0,0
20.09.2017 19:00:00 16,9 10,5 17,0 14,8 15,7 4 2 13 7 S 1019,9 20 21 0,0
20.09.2017 18:00:00 17,2 10,3 17,2 14,6 15,7 8 4 15 8 SW 1020,1 20 10 0,0
20.09.2017 17:00:00 17,5 11,3 18,6 14,4 15,7 3 2 14 8 SE 1020,5 30 19 0,0
20.09.2017 16:00:00 17,7 10,3 20,3 14,3 15,7 6 3 15 8 S 1020,7 30 27 0,0
20.09.2017 15:00:00 16,5 10,8 17,8 14,1 15,7 8 4 16 9 SSW 1021,2 30 0 0,0
20.09.2017 14:00:00 15,5 10,7 16,4 14,0 15,7 6 4 16 9 SW 1021,6 30 0 0,0
20.09.2017 13:00:00 15,1 10,9 16,8 13,9 15,7 10 6 20 11 WSW 1021,9 30 0 0,0
20.09.2017 12:00:00 14,4 10,6 13,1 13,9 15,7 8 4 16 9 S 1022,1 30 0 0,0
20.09.2017 11:00:00 13,1 9,3 13,1 13,9 15,7 8 4 15 8 SSW 1022,2 30 0 0,0
20.09.2017 10:00:00 12,3 9,7 10,9 13,9 15,7 6 3 16 8 S 1022,1 20 19 0,0
20.09.2017 09:00:00 11,4 9,5 9,5 14,0 15,8 8 4 16 9 SSW 1022,0 20 12 0,0
20.09.2017 08:00:00 10,2 9,0 9,3 14,1 15,7 8 5 16 8 SSW 1022,0 20 0 0,0
20.09.2017 07:00:00 10,3 9,1 9,5 14,1 15,8 8 4 14 8 S 1021,9 20 0 0,2
20.09.2017 06:00:00 10,3 9,4 9,5 14,2 15,8 7 4 11 6 S 1022,0 10 0 0,4
20.09.2017 05:00:00 9,8 8,6 8,4 14,3 15,7 5 3 13 7 S 1022,3 13 0 0,0
20.09.2017 04:00:00 9,2 8,0 8,1 14,4 15,8 8 4 14 7 S 1022,4 19 0 0,0
20.09.2017 03:00:00 9,3 8,2 7,3 14,5 15,8 8 4 14 7 S 1022,7 18 0 0,0
20.09.2017 02:00:00 8,5 7,4 6,6 14,7 15,8 6 3 8 5 SE 1023,0 14 0 0,0
20.09.2017 01:00:00 9,0 7,8 6,1 14,8 15,8 4 2 10 5 S 1023,1 15 0 0,0
20.09.2017 00:00:00 8,9 7,5 6,7 15,0 15,8 5 3 8 5 SSW 1023,1 14 0 0,0
19.09.2017 23:00:00 9,7 7,8 7,7 15,1 15,8 6 3 9 5 SW 1022,9 16 0 0,0
19.09.2017 22:00:00 10,0 8,1 8,2 15,2 15,8 7 4 12 6 W 1023,2 20 0 0,0
19.09.2017 21:00:00 11,0 8,6 9,3 15,2 15,8 8 4 13 7 W 1023,2 20 0 0,0
19.09.2017 20:00:00 12,0 8,5 10,3 15,2 15,8 8 5 19 11 W 1022,6 20 26 0,0
19.09.2017 19:00:00 14,1 8,9 15,9 15,1 15,8 14 8 29 15 W 1022,6 20 60 0,0
19.09.2017 18:00:00 14,5 9,1 16,7 15,0 15,8 21 11 36 19 WNW 1022,5 20 57 0,0
19.09.2017 17:00:00 15,7 9,4 18,1 14,8 15,8 16 9 29 16 W 1022,0 25 55 0,0
19.09.2017 16:00:00 15,2 9,5 17,6 14,5 15,8 19 10 34 18 WNW 1022,0 25 54 0,0
19.09.2017 15:00:00 15,6 10,4 18,2 14,3 15,8 22 12 35 19 W 1021,9 25 57 0,0
19.09.2017 14:00:00 15,7 10,2 17,4 14,0 15,8 18 10 29 16 W 1021,6 25 51 0,0
19.09.2017 13:00:00 15,1 8,3 20,7 13,8 15,8 13 7 21 12 WNW 1021,3 25 60 0,0
19.09.2017 12:00:00 14,1 9,3 14,7 13,8 15,9 17 9 30 16 NNW 1021,4 25 43 0,0
19.09.2017 11:00:00 13,5 9,7 17,6 13,8 15,8 19 10 29 16 NNW 1021,1 25 60 0,0
19.09.2017 10:00:00 12,0 9,6 10,8 13,8 15,8 14 7 22 12 NNW 1020,2 20 60 0,0
19.09.2017 09:00:00 10,5 9,9 8,6 13,9 15,9 8 4 12 7 NW 1019,9 25 46 0,0
19.09.2017 08:00:00 9,5 8,9 8,6 13,9 15,9 6 3 9 5 W 1019,8 16 1 0,0
19.09.2017 07:00:00 10,1 9,5 9,6 14,0 15,9 7 4 13 7 W 1019,1 20 0 0,8
19.09.2017 06:00:00 10,4 9,8 10,0 14,1 15,9 5 3 11 6 NW 1018,8 15 0 2,4
19.09.2017 05:00:00 10,5 9,7 10,0 14,3 15,9 5 3 17 9 WNW 1018,7 10 0 3,9
19.09.2017 04:00:00 10,5 9,6 10,1 14,4 15,9 13 7 36 20 W 1018,6 6 0 8,3
19.09.2017 03:00:00 11,4 10,0 9,5 14,5 15,9 16 9 27 15 W 1018,7 20 0 0,0
19.09.2017 02:00:00 10,3 9,2 9,1 14,6 15,9 5 3 13 7 SSW 1018,7 15 0 0,0
19.09.2017 01:00:00 10,6 9,5 9,2 14,7 15,9 5 3 9 5 SSW 1018,5 15 0 1,0
19.09.2017 00:00:00 10,2 8,8 8,2 14,8 15,9 6 3 9 5 SSW 1018,7 20 0 0,0
18.09.2017 23:00:00 10,3 8,9 8,0 14,9 15,9 5 3 10 6 WSW 1018,8 20 0 0,0
18.09.2017 22:00:00 10,7 9,1 7,2 14,9 15,9 4 2 26 14 W 1018,7 20 0 0,4
18.09.2017 21:00:00 11,7 10,3 9,8 14,9 15,9 10 5 19 10 NW 1018,7 20 0 0,0
18.09.2017 20:00:00 12,0 10,1 10,4 14,9 15,9 8 4 16 9 W 1017,8 20 22 0,0
18.09.2017 19:00:00 12,8 9,8 10,9 14,8 15,9 12 6 39 21 NW 1017,5 20 22 0,4
18.09.2017 18:00:00 14,6 10,4 14,5 14,7 15,9 18 10 34 18 WNW 1017,1 20 28 0,0
18.09.2017 17:00:00 15,7 9,8 18,1 14,6 15,9 18 10 32 17 NW 1016,8 30 52 0,0
18.09.2017 16:00:00 16,1 11,3 14,5 14,4 15,9 19 10 32 17 NW 1016,7 30 36 0,0
18.09.2017 15:00:00 14,1 11,8 14,5 14,4 16,0 11 6 22 12 W 1016,7 20 0 0,0
18.09.2017 14:00:00 13,3 11,5 11,5 14,3 16,0 6 3 16 9 W 1016,7 20 0 0,2
18.09.2017 13:00:00 12,4 9,8 11,5 14,2 16,0 16 9 29 16 WNW 1016,7 6 22 3,9
18.09.2017 12:00:00 13,2 11,8 13,2 14,2 16,0 8 4 14 7 SSW 1016,6 20 11 0,0
18.09.2017 11:00:00 11,9 11,0 11,4 14,2 16,0 4 2 10 6 SSW 1016,8 15 0 0,6
18.09.2017 10:00:00 11,3 10,2 10,5 14,3 16,0 3 2 23 12 SW 1016,2 15 0 2,0
18.09.2017 09:00:00 11,0 10,2 9,8 14,3 16,0 5 3 13 7 SSW 1015,5 15 24 0,0
18.09.2017 08:00:00 9,9 9,1 6,7 14,4 16,0 6 3 12 6 SW 1015,5 15 3 0,0
18.09.2017 07:00:00 9,2 8,1 6,9 14,5 16,0 4 2 8 5 SW 1015,4 15 0 0,0
18.09.2017 06:00:00 9,8 8,9 8,7 14,6 16,0 4 2 11 6 S 1015,1 20 0 0,0
18.09.2017 05:00:00 10,1 8,9 8,7 14,7 16,0 6 3 16 9 SSW 1015,0 11 0 1,4
18.09.2017 04:00:00 10,4 9,3 9,4 14,7 16,0 5 3 15 8 WNW 1015,2 7 0 1,0
18.09.2017 03:00:00 10,2 9,1 8,6 14,9 16,0 9 5 16 9 SW 1015,1 5 0 0,0
18.09.2017 02:00:00 10,0 8,9 8,5 15,0 16,0 5 3 13 7 S 1015,2 20 0 0,0
18.09.2017 01:00:00 10,3 9,2 7,8 15,1 16,0 8 5 16 9 WSW 1015,3 17 0 0,6
18.09.2017 00:00:00 10,0 8,4 7,7 15,3 16,0 5 3 9 5 SW 1015,3 12 0 0,0
17.09.2017 23:00:00 10,3 8,7 8,1 15,3 16,0 7 4 10 5 W 1015,2 20 0 0,0
17.09.2017 22:00:00 10,6 9,0 9,3 15,4 16,0 8 5 12 6 W 1015,1 20 0 0,0
17.09.2017 21:00:00 11,8 9,5 10,2 15,4 16,1 10 5 14 7 WNW 1014,7 20 0 0,0

tt = Température de l'air
td = dewpoint
tt 5cm = Température de l'air 5cm
tt -20cm = Température de l'air -20cm
tt -100cm = Température de l'air -100cm
ff = Vitesse du vent
fx = gusts
dd = Direction du vent
ppp = reduced air pressure
vv = visibility
sd = Ensoleillement
rr = Quantités de précipitations

stations d'obs. à proximité